Weather History for KJAX - January, 2014

Change the Weather History Date:

Wednesday, January 22, 2014

  Actual Average Record
Temperature  
Mean Temperature 40 °F 53 °F  
Max Temperature 49 °F 65 °F 82 °F (1999)
Min Temperature 30 °F 42 °F 16 °F (1985)
Degree Days  
Heating Degree Days 25 12  
Month to date heating degree days 312 277  
Since 1 July heating degree days 670 773  
Cooling Degree Days 0 0  
Month to date cooling degree days 9 0  
Year to date cooling degree days 9 0  
Moisture  
Dew Point 22 °F    
Average Humidity 52    
Maximum Humidity 78    
Minimum Humidity 26    
Precipitation  
Precipitation 0.00 in 0.12 in 1.21 in (1946)
Month to date precipitation 6.06 2.26  
Year to date precipitation 6.06 2.26  
Snow  
Snow 0.00 in 0.00 in T in (1935)
Month to date snowfall 0.0 0.0  
Since 1 July snowfall 0.0 T  
Snow Depth 0.00 in    
Sea Level Pressure  
Sea Level Pressure 30.09 in    
Wind  
Wind Speed 9 mph (NW)    
Max Wind Speed 22 mph    
Max Gust Speed 30 mph    
Visibility 10 miles    
Events      
T = Trace of Precipitation, MM = Missing Value Source: NWS Daily Summary

Daily Weather History Graph

Daily Weather History Graph

Search for Another Location

Airport or City:

Trip Planner

Search our weather history database for the weather conditions in past years. The results will help you decide how hot, cold, wet, or windy it might be!

Date:

Astronomy

Jan. 22, 2014 Rise Set
Actual Time 7:22 AM EST 5:54 PM EST
Civil Twilight 6:56 AM EST 6:20 PM EST
Nautical Twilight 6:27 AM EST 6:49 PM EST
Astronomical Twilight 5:59 AM EST 7:18 PM EST
Moon 11:55 PM EST (1/22) 10:51 AM EST (1/22)
Length of Visible Light 11h 23m
Length of Day
10h 31m
Waning Gibbous, 65% of the Moon is Illuminated
Jan 22
Waning Gibbous
Jan 24
Last Quarter
Jan 30
New
Feb 6
First Quarter
Feb 14
Full

Hourly Weather History & Observations

Time (EST) Temp. Windchill Dew Point Humidity Pressure Visibility Wind Dir Wind Speed Gust Speed Precip Events Conditions
12:56 AM 42.1 °F 34.9 °F 24.1 °F 49% 29.93 in 10.0 mi WNW 13.8 mph 23.0 mph N/A   Clear
1:56 AM 41.0 °F 34.7 °F 25.0 °F 53% 29.95 in 10.0 mi WNW 10.4 mph - N/A   Clear
2:56 AM 37.9 °F 30.5 °F 25.0 °F 60% 29.98 in 10.0 mi NNW 11.5 mph - N/A   Clear
3:56 AM 35.1 °F 28.6 °F 25.0 °F 67% 29.99 in 10.0 mi NW 8.1 mph - N/A   Clear
4:56 AM 34.0 °F 24.2 °F 21.9 °F 61% 30.02 in 10.0 mi NW 15.0 mph 20.7 mph N/A   Clear
5:56 AM 32.0 °F 23.0 °F 21.0 °F 64% 30.05 in 10.0 mi NW 11.5 mph - N/A   Clear
6:56 AM 30.9 °F 23.5 °F 21.0 °F 67% 30.07 in 10.0 mi NW 8.1 mph - N/A   Clear
7:56 AM 30.9 °F 21.2 °F 19.9 °F 64% 30.09 in 10.0 mi NW 12.7 mph - N/A   Clear
8:56 AM 33.1 °F 23.4 °F 21.0 °F 61% 30.12 in 10.0 mi NW 13.8 mph 20.7 mph N/A   Clear
9:56 AM 35.1 °F 27.9 °F 21.0 °F 57% 30.14 in 10.0 mi NW 9.2 mph - N/A   Clear
10:56 AM 37.9 °F 30.0 °F 21.0 °F 51% 30.15 in 10.0 mi WNW 12.7 mph - N/A   Clear
11:56 AM 41.0 °F 33.1 °F 21.0 °F 45% 30.14 in 10.0 mi WNW 15.0 mph - N/A   Clear
12:56 PM 43.0 °F 36.8 °F 19.9 °F 40% 30.10 in 10.0 mi WNW 11.5 mph - N/A   Clear
1:56 PM 45.0 °F 37.9 °F 18.0 °F 34% 30.09 in 10.0 mi WNW 16.1 mph 23.0 mph N/A   Clear
2:56 PM 48.0 °F - 17.1 °F 29% 30.07 in 10.0 mi WNW 9.2 mph - N/A   Clear
3:56 PM 48.0 °F - 15.1 °F 27% 30.08 in 10.0 mi WNW 8.1 mph - N/A   Clear
4:56 PM 48.0 °F - 16.0 °F 28% 30.09 in 10.0 mi WNW 9.2 mph - N/A   Clear
5:56 PM 42.8 °F 41.1 °F 19.4 °F 39% 30.12 in 10.0 mi West 3.5 mph - N/A   Partly Cloudy
6:56 PM 39.2 °F - 24.8 °F 56% 30.12 in 10.0 mi Calm Calm - N/A   Partly Cloudy
7:56 PM 37.0 °F - 27.0 °F 67% 30.15 in 10.0 mi Calm Calm - N/A   Clear
8:56 PM 35.1 °F - 28.0 °F 76% 30.17 in 10.0 mi Calm Calm - N/A   Clear
9:56 PM 33.1 °F 28.7 °F 27.0 °F 78% 30.20 in 10.0 mi WNW 4.6 mph - N/A   Clear
10:56 PM 32.0 °F - 27.0 °F 82% 30.21 in 10.0 mi Calm Calm - N/A   Clear
11:56 PM 30.0 °F - 27.0 °F 88% 30.22 in 10.0 mi Calm Calm - N/A   Clear